TimeCST,TemperatureF,Dew PointF,Humidity,Sea Level PressureIn,VisibilityMPH,Wind Direction,Wind SpeedMPH,Gust SpeedMPH,PrecipitationIn,Events,Conditions,WindDirDegrees,DateUTC
12:52 AM,42.1,33.1,70,29.29,10.0,South,4.6,-,N/A,,Clear,180,2011-11-13 06:52:00
1:52 AM,42.1,33.1,70,29.29,10.0,NW,3.5,-,N/A,,Mostly Cloudy,310,2011-11-13 07:52:00
2:52 AM,43.0,33.1,68,29.28,10.0,Calm,Calm,-,N/A,,Overcast,0,2011-11-13 08:52:00
3:52 AM,48.9,37.0,64,29.30,10.0,NW,15.0,-,0.01,Rain,Light Rain,320,2011-11-13 09:52:00
4:52 AM,46.0,39.0,76,29.20,10.0,East,11.5,-,0.00,,Scattered Clouds,80,2011-11-13 10:52:00
5:52 AM,41.0,37.4,87,29.21,10.0,Calm,Calm,-,N/A,,Clear,0,2011-11-13 11:52:00
6:52 AM,46.0,37.9,73,29.26,10.0,WNW,10.4,-,N/A,,Overcast,290,2011-11-13 12:52:00
7:52 AM,44.1,33.1,65,29.30,10.0,West,11.5,-,N/A,,Mostly Cloudy,260,2011-11-13 13:52:00
8:52 AM,44.1,30.0,58,29.33,10.0,West,10.4,-,N/A,,Overcast,270,2011-11-13 14:52:00
9:52 AM,45.0,30.0,56,29.36,10.0,West,16.1,21.9,N/A,,Overcast,280,2011-11-13 15:52:00
10:52 AM,46.0,30.9,56,29.40,10.0,NW,23.0,32.2,N/A,,Overcast,310,2011-11-13 16:52:00
11:52 AM,48.9,32.0,52,29.44,10.0,NW,20.7,26.5,N/A,,Clear,320,2011-11-13 17:52:00
12:52 PM,50.0,33.1,52,29.44,10.0,WNW,11.5,-,N/A,,Clear,300,2011-11-13 18:52:00
1:52 PM,52.0,34.0,50,29.46,10.0,WNW,12.7,-,N/A,,Clear,300,2011-11-13 19:52:00
2:52 PM,52.0,32.0,47,29.48,10.0,WNW,13.8,-,N/A,,Clear,300,2011-11-13 20:52:00
3:52 PM,51.1,32.0,48,29.48,10.0,WNW,8.1,-,N/A,,Clear,290,2011-11-13 21:52:00
4:52 PM,48.0,30.9,52,29.51,10.0,WSW,6.9,-,N/A,,Clear,240,2011-11-13 22:52:00
5:52 PM,46.0,30.0,54,29.53,10.0,SSW,6.9,-,N/A,,Clear,200,2011-11-13 23:52:00
6:52 PM,44.1,30.0,58,29.54,10.0,SSW,5.8,-,N/A,,Clear,200,2011-11-14 00:52:00
7:52 PM,42.1,28.9,60,29.55,10.0,SSW,4.6,-,N/A,,Clear,200,2011-11-14 01:52:00
8:52 PM,41.0,28.9,62,29.57,10.0,SSW,9.2,-,N/A,,Clear,210,2011-11-14 02:52:00
9:52 PM,36.0,27.0,70,29.58,10.0,SSE,4.6,-,N/A,,Clear,150,2011-11-14 03:52:00
10:52 PM,34.0,26.1,73,29.57,10.0,East,8.1,-,N/A,,Clear,90,2011-11-14 04:52:00
11:52 PM,33.1,26.1,75,29.55,10.0,East,6.9,-,N/A,,Clear,90,2011-11-14 05:52:00